Change the Weather History Date:

Monday, August 5, 2013

  Actual Average Record
Temperature  
Mean Temperature 72 °F -  
Max Temperature 84 °F 87 °F 96 °F (2007)
Min Temperature 60 °F 68 °F 56 °F (1976)
Cooling Degree Days 7    
Growing Degree Days 22 (Base 50)    
Moisture  
Dew Point 61 °F    
Average Humidity 80    
Maximum Humidity 100    
Minimum Humidity 39    
Precipitation  
Precipitation 0.00 in - - ()
Sea Level Pressure  
Sea Level Pressure 30.06 in    
Wind  
Wind Speed 1 mph (SE)    
Max Wind Speed 7 mph    
Max Gust Speed -    
Visibility 9 miles    
Events      
Averages and records for this station are not official NWS values.
T = Trace of Precipitation, MM = Missing Value Source: NWS Daily Summary

Daily Weather History Graph

Daily Weather History Graph

Search for Another Location

Airport or City:

Trip Planner

Search our weather history database for the weather conditions in past years. The results will help you decide how hot, cold, wet, or windy it might be!

Date:

Astronomy

Aug. 05, 2013 Rise Set
Actual Time 6:22 AM EDT 8:09 PM EDT
Civil Twilight 5:54 AM EDT 8:37 PM EDT
Nautical Twilight 5:21 AM EDT 9:10 PM EDT
Astronomical Twilight 4:45 AM EDT 9:46 PM EDT
Moon 5:15 AM EDT (8/5) 7:10 PM EDT (8/5)
Length of Visible Light 14h 42m
Length of Day
13h 47m
Waning Crescent, 1% of the Moon is Illuminated
Aug 5
Waning Crescent
Aug 6
New
Aug 14
First Quarter
Aug 20
Full
Aug 28
Last Quarter

Hourly Weather History & Observations

Time (EDT) Temp. Heat Index Dew Point Humidity Pressure Visibility Wind Dir Wind Speed Gust Speed Precip Events Conditions
12:15 AM 63.9 °F - 62.1 °F 94% 30.04 in 10.0 mi Calm Calm - N/A   Clear
12:35 AM 63.7 °F - 62.2 °F 95% 30.04 in 10.0 mi Calm Calm - N/A   Clear
12:55 AM 63.3 °F - 62.1 °F 96% 30.04 in 7.0 mi Calm Calm - N/A   Clear
1:15 AM 63.3 °F - 62.2 °F 96% 30.04 in 10.0 mi Calm Calm - N/A   Clear
1:35 AM 62.4 °F - 61.3 °F 96% 30.05 in 7.0 mi Calm Calm - N/A   Clear
1:55 AM 62.6 °F - 61.7 °F 97% 30.04 in 7.0 mi Calm Calm - N/A   Clear
2:15 AM 61.9 °F - 61.2 °F 97% 30.04 in 7.0 mi Calm Calm - N/A   Clear
2:35 AM 62.6 °F - 61.7 °F 97% 30.04 in 10.0 mi Calm Calm - N/A   Clear
2:55 AM 61.2 °F - 60.1 °F 96% 30.04 in 7.0 mi Calm Calm - N/A   Clear
3:15 AM 61.3 °F - 60.6 °F 97% 30.03 in 7.0 mi Calm Calm - N/A   Clear
3:35 AM 61.2 °F - 60.3 °F 97% 30.04 in 10.0 mi Calm Calm - N/A   Clear
3:55 AM 61.0 °F - 60.1 °F 97% 30.03 in 7.0 mi Calm Calm - N/A   Clear
4:15 AM 60.8 °F - 59.9 °F 97% 30.04 in 10.0 mi Calm Calm - N/A   Clear
4:35 AM 60.4 °F - 59.5 °F 97% 30.03 in 7.0 mi Calm Calm - N/A   Clear
4:55 AM 60.4 °F - 59.5 °F 97% 30.03 in 10.0 mi Calm Calm - N/A   Clear
5:15 AM 60.3 °F - 59.4 °F 97% 30.04 in 10.0 mi Calm Calm - N/A   Clear
5:35 AM 60.4 °F - 59.5 °F 97% 30.04 in 10.0 mi NNW 3.5 mph - N/A   Clear
5:55 AM 62.1 °F - 61.2 °F 97% 30.05 in 10.0 mi Calm Calm - N/A   Clear
6:15 AM 61.2 °F - 60.1 °F 96% 30.06 in 10.0 mi Calm Calm - N/A   Clear
6:35 AM 60.8 °F - 59.9 °F 97% 30.07 in 7.0 mi Calm Calm - N/A   Clear
6:55 AM 61.2 °F - 60.3 °F 97% 30.07 in 10.0 mi Calm Calm - N/A   Clear
6:56 AM 60.8 °F - 60.8 °F 100% 30.07 in 10.0 mi Calm Calm - N/A   Clear
7:56 AM 68.0 °F - 62.6 °F 83% 30.09 in 10.0 mi Calm Calm - N/A   Clear
8:50 AM 71.6 °F - 62.6 °F 73% 30.10 in 10.0 mi NE 5.8 mph - N/A   Clear
9:56 AM 77.0 °F - 60.8 °F 57% 30.09 in 10.0 mi ENE 6.9 mph - N/A   Clear
10:56 AM 80.6 °F 81.1 °F 59.0 °F 48% 30.10 in 10.0 mi ESE 6.9 mph - N/A   Clear
11:56 AM 80.6 °F 80.5 °F 55.4 °F 42% 30.10 in 10.0 mi East 6.9 mph - N/A   Clear
12:56 PM 82.4 °F 81.7 °F 55.4 °F 39% 30.09 in 10.0 mi ESE 4.6 mph - N/A   Partly Cloudy
1:56 PM 82.4 °F 81.7 °F 55.4 °F 39% 30.07 in 10.0 mi Calm Calm - N/A   Partly Cloudy
2:56 PM 82.4 °F 82.0 °F 57.2 °F 42% 30.06 in 10.0 mi ESE 4.6 mph - N/A   Scattered Clouds
4:56 PM 84.2 °F 83.5 °F 57.2 °F 40% 30.04 in 10.0 mi ESE 4.6 mph - N/A   Scattered Clouds
6:56 PM 82.4 °F 82.5 °F 59.0 °F 45% 30.03 in 10.0 mi SE 5.8 mph - N/A   Clear
8:56 PM 77.0 °F - 64.4 °F 65% 30.05 in 10.0 mi SE 4.6 mph - N/A   Clear
9:15 PM 76.3 °F - 64.8 °F 67% 30.06 in 10.0 mi SSE 3.5 mph - N/A   Clear
9:35 PM 75.4 °F - 65.1 °F 70% 30.07 in 10.0 mi SSE 4.6 mph - N/A   Clear
9:55 PM 74.8 °F - 64.8 °F 71% 30.07 in 10.0 mi South 5.8 mph - N/A   Clear
10:15 PM 74.1 °F - 64.6 °F 72% 30.07 in 10.0 mi SSE 5.8 mph - N/A   Clear
10:35 PM 73.8 °F - 64.4 °F 72% 30.07 in 10.0 mi South 4.6 mph - N/A   Scattered Clouds
10:55 PM 73.9 °F - 64.2 °F 72% 30.07 in 10.0 mi SSE 5.8 mph - N/A   Scattered Clouds
11:15 PM 73.9 °F - 64.2 °F 72% 30.07 in 10.0 mi South 5.8 mph - N/A   Scattered Clouds
11:35 PM 72.7 °F - 64.8 °F 76% 30.07 in 10.0 mi South 5.8 mph - N/A   Scattered Clouds
11:55 PM 72.5 °F - 64.4 °F 76% 30.07 in 10.0 mi South 3.5 mph - N/A   Scattered Clouds